Weather History for LEPA - October, 2012

Change the Weather History Date:

Sunday, October 21, 2012

  Actual Average Record
Temperature  
Mean Temperature 67 °F -  
Max Temperature 72 °F 67 °F 90 °F (2014)
Min Temperature 62 °F 49 °F 44 °F (1998)
Cooling Degree Days 2    
Growing Degree Days 17 (Base 50)    
Moisture  
Dew Point 59 °F    
Average Humidity 74    
Maximum Humidity 94    
Minimum Humidity 46    
Precipitation  
Precipitation 1.38 in 0.07 in - ()
Sea Level Pressure  
Sea Level Pressure 29.91 in    
Wind  
Wind Speed 8 mph ()    
Max Wind Speed 20 mph    
Max Gust Speed 25 mph    
Visibility 6.2 miles    
Events Rain    
Averages and records for this station are not official NWS values.
T = Trace of Precipitation, MM = Missing Value Source: Averaged Metar Reports

Daily Weather History Graph

Daily Weather History Graph

Search for Another Location

Airport or City:

Trip Planner

Search our weather history database for the weather conditions in past years. The results will help you decide how hot, cold, wet, or windy it might be!

Date:

Astronomy

Oct. 21, 2012 Rise Set
Actual Time 8:05 AM CEST 7:01 PM CEST
Civil Twilight 7:38 AM CEST 7:28 PM CEST
Nautical Twilight 7:06 AM CEST 7:59 PM CEST
Astronomical Twilight 6:35 AM CEST 8:30 PM CEST
Moon 2:15 PM CEST (10/21) No Moon Set
Length of Visible Light 11h 50m
Length of Day
10h 55m
Waxing Crescent, 42% of the Moon is Illuminated
Oct 21
Waxing Crescent
Oct 22
First Quarter
Oct 29
Full
Nov 7
Last Quarter
Nov 13
New

Hourly Weather History & Observations

Time (CEST) Temp. Dew Point Humidity Pressure Visibility Wind Dir Wind Speed Gust Speed Precip Events Conditions
12:00 AM 68.0 °F 66.2 °F 94% 29.89 in 3.7 mi Variable 1.2 mph - N/A   Scattered Clouds
12:30 AM 68.0 °F 62.6 °F 83% 29.89 in 3.7 mi SW 15.0 mph - N/A   Scattered Clouds
1:00 AM 66.2 °F 64.4 °F 94% 29.89 in 3.7 mi SSE 2.3 mph - N/A   Scattered Clouds
1:30 AM 66.2 °F 64.4 °F 94% 29.89 in 3.7 mi SSE 2.3 mph - N/A   Scattered Clouds
2:00 AM 65 °F 62 °F 87% 29.91 in 4 mi SW 10.4 mph - - Rain Rain
2:00 AM 66.2 °F 64.4 °F 94% 29.89 in 3.7 mi SSE 3.5 mph - N/A   Scattered Clouds
2:30 AM 66.2 °F 64.4 °F 94% 29.83 in 3.7 mi NE 5.8 mph - N/A   Scattered Clouds
3:00 AM 66.2 °F 64.4 °F 94% 29.83 in 5.0 mi ESE 3.5 mph - N/A   Partly Cloudy
3:30 AM 66.2 °F 64.4 °F 94% 29.86 in 6.2 mi ESE 3.5 mph - N/A   Scattered Clouds
4:00 AM 64.4 °F 62.6 °F 94% 29.83 in 6.2 mi Variable 2.3 mph - N/A   Scattered Clouds
4:30 AM 64.4 °F 62.6 °F 94% 29.83 in 3.7 mi SE 8.1 mph - N/A Rain Rain
5:00 AM 62.6 °F 60.8 °F 94% 29.86 in 6.2 mi SW 4.6 mph - N/A   Scattered Clouds
5:30 AM 62.6 °F 60.8 °F 94% 29.83 in 6.2 mi Calm Calm - N/A   Scattered Clouds
6:00 AM 62.6 °F 60.8 °F 94% 29.83 in 6.2 mi East 2.3 mph - N/A   Scattered Clouds
6:30 AM 62.6 °F 60.8 °F 94% 29.83 in 6.2 mi Variable 2.3 mph - N/A   Scattered Clouds
7:00 AM 64.4 °F 60.8 °F 88% 29.86 in 6.2 mi SSE 3.5 mph - N/A   Scattered Clouds
7:30 AM 64.4 °F 62.6 °F 94% 29.86 in 6.2 mi SSE 5.8 mph - N/A   Scattered Clouds
8:00 AM 66 °F 56 °F 63% 29.87 in 9 mi SSW 13.8 mph - -   Partly Cloudy
8:00 AM 68.0 °F 59.0 °F 73% 29.86 in 6.2 mi SSW 12.7 mph - N/A   Scattered Clouds
8:30 AM 68.0 °F 59.0 °F 73% 29.86 in 6.2 mi SSW 11.5 mph - N/A   Scattered Clouds
9:00 AM 69.8 °F 57.2 °F 64% 29.89 in 6.2 mi SSW 16.1 mph - N/A   Scattered Clouds
9:30 AM 69.8 °F 57.2 °F 64% 29.89 in 6.2 mi SSW 12.7 mph - N/A   Scattered Clouds
10:30 AM 69.8 °F 59.0 °F 68% 29.92 in 6.2 mi SSW 13.8 mph - N/A   Partly Cloudy
11:00 AM 71.6 °F 57.2 °F 60% 29.92 in 6.2 mi SSW 15.0 mph - N/A   Partly Cloudy
11:30 AM 69.8 °F 60.8 °F 73% 29.92 in 6.2 mi SSW 13.8 mph 25.3 mph N/A   Scattered Clouds
12:00 PM 71.6 °F 60.8 °F 69% 29.92 in 6.2 mi SSW 13.8 mph - N/A   Scattered Clouds
12:30 PM 73.4 °F 59.0 °F 61% 29.92 in 6.2 mi SSW 15.0 mph - N/A   Scattered Clouds
1:00 PM 73.4 °F 59.0 °F 61% 29.92 in 6.2 mi SSW 18.4 mph - N/A   Scattered Clouds
1:30 PM 71.6 °F 59.0 °F 64% 29.92 in 6.2 mi SSW 17.3 mph - N/A   Scattered Clouds
2:00 PM 72 °F 56 °F 46% 29.93 in 16 mi SSW 18.4 mph - -   Scattered Clouds
2:00 PM 71.6 °F 59.0 °F 64% 29.92 in 6.2 mi SSW 17.3 mph - N/A   Scattered Clouds
2:30 PM 71.6 °F 59.0 °F 64% 29.92 in 6.2 mi SSW 16.1 mph - N/A   Scattered Clouds
3:00 PM 71.6 °F 59.0 °F 64% 29.92 in 6.2 mi SSW 15.0 mph - N/A   Scattered Clouds
3:30 PM 71.6 °F 59.0 °F 64% 29.92 in 6.2 mi SSW 17.3 mph - N/A   Scattered Clouds
4:00 PM 71.6 °F 59.0 °F 64% 29.92 in 6.2 mi SSW 17.3 mph - N/A   Scattered Clouds
4:30 PM 71.6 °F 57.2 °F 60% 29.92 in 6.2 mi SW 19.6 mph - N/A   Scattered Clouds
5:30 PM 69.8 °F 55.4 °F 60% 29.92 in 6.2 mi SW 12.7 mph - N/A   Scattered Clouds
6:00 PM 68.0 °F 57.2 °F 68% 29.92 in 6.2 mi SW 15.0 mph - N/A   Scattered Clouds
6:30 PM 68.0 °F 55.4 °F 64% 29.95 in 6.2 mi SW 13.8 mph - N/A   Scattered Clouds
7:00 PM 68.0 °F 53.6 °F 60% 29.95 in 6.2 mi SSW 10.4 mph - N/A   Scattered Clouds
7:30 PM 66.2 °F 55.4 °F 68% 29.95 in 6.2 mi SSW 9.2 mph - N/A   Scattered Clouds
8:00 PM 67 °F 53 °F 50% 29.97 in 16 mi SSW 13.8 mph - -   Partly Cloudy
8:00 PM 68.0 °F 57.2 °F 68% 29.95 in 6.2 mi South 10.4 mph - N/A   Scattered Clouds
8:30 PM 68.0 °F 57.2 °F 68% 29.95 in 6.2 mi South 9.2 mph - N/A   Scattered Clouds
9:00 PM 68.0 °F 55.4 °F 64% 29.95 in 6.2 mi SSW 12.7 mph - N/A   Scattered Clouds
9:30 PM 68.0 °F 55.4 °F 64% 29.98 in 6.2 mi SSW 13.8 mph - N/A   Scattered Clouds
9:50 PM 68.0 °F 55.4 °F 64% 29.98 in 6.2 mi SSW 15.0 mph - N/A Rain Rain Showers
10:00 PM 64.4 °F 57.2 °F 77% 29.98 in 4.3 mi SW 16.1 mph - N/A Rain Rain Showers
10:30 PM 64.4 °F 57.2 °F 77% 29.98 in 4.3 mi SW 11.5 mph - N/A Rain Rain Showers
11:00 PM 66.2 °F 57.2 °F 73% 29.98 in 6.2 mi SW 13.8 mph 25.3 mph N/A Rain Light Rain
11:30 PM 68.0 °F 55.4 °F 64% 29.98 in 6.2 mi SW 13.8 mph - N/A   Scattered Clouds